[[{"header":{"parameterUnit":"m.s-1","parameterCategory":1,"la1":30.2991,"la2":30.254,"lo1":-89.0895,"lo2":-89.0444,"dy":0.0017,"dx":0.0017,"nx":28,"ny":28,"refTime":"2024-08-10T09:00:00:Z","depth":0,"parameterNumber":2,"parameterNumberName":"U-component_of_WINDS"},"data":[0,0,0,0,0,0,0,0,0,0,0,0,0,0,0,0,0,0,0,0,0,0,0,0,0,0,0,0,0,0,0,0,0,0,0,0,0,0,0,0,0,0,0,0,0,0,0,0,0,0,0,0,0,0,0,0,0,0,0.8846,0.8847,0,0.8949,0.895,0.8951,0.8977,0.8976,0.8975,0.8975,0.9082,0.9085,0.9089,0,0,0,0,0,0,0,0,0,0,0,0,0,0.8672,0.8675,0.8846,0.8847,0.8849,0.8949,0.895,0.8952,0.8977,0.8976,0.8975,0.8975,0.9081,0.9085,0.9089,0,0,0,0,0,0,0,0,0,0,0,0,0,0.8759,0.8676,0.8846,0.8873,0.8877,0.8948,0.895,0.8952,0.8977,0.8976,0.8975,0.8974,0.9079,0.9084,0.909,0.9142,0,0,0.9106,0.9108,0,0,0,0,0,0,0,0,0.8754,0.8765,0.8868,0.8871,0.8876,0.8949,0.8928,0.9016,0.8977,0.8939,0.8975,0.8974,0.9039,0.9047,0.9069,0.9147,0.9151,0.9106,0.9109,0.9111,0.9113,0,0,0,0,0,0,0,0.8748,0.8761,0.8887,0.8869,0.8874,0.8881,0.8892,0.8945,0.8993,0.8942,0.8944,0.8956,0.9041,0.9064,0.9071,0.9153,0.9106,0.911,0.9114,0.9116,0.9279,0.928,0,0,0,0,0,0,0.8737,0.8756,0.8884,0.889,0.8811,0.8885,0.8897,0.8926,0.8993,0.9002,0.8957,0.8957,0.9055,0.9065,0.9075,0.914,0.9111,0.9116,0.9119,0.9277,0.9279,0.928,0,0,0,0,0,0,0.8733,0.8748,0.8879,0.8823,0.8841,0.8889,0.8921,0.8929,0.8952,0.9004,0.9013,0.8972,0.9055,0.9068,0.9125,0.9144,0.9119,0.9123,0.9276,0.9278,0.9279,0.9271,0,0,0,0,0,0,0.8728,0.8746,0.8767,0.8824,0.8843,0.8927,0.8923,0.8932,0.8961,0.8962,0.902,0.9028,0.9055,0.9117,0.913,0.9151,0.9127,0.9274,0.9277,0.9279,0.9269,0.9272,0.9274,0,0,0,0,0,0.8722,0.876,0.8767,0.8783,0.887,0.8928,0.8939,0.8969,0.8962,0.8983,0.9016,0.9027,0.914,0.9122,0.9137,0.916,0.9273,0.9276,0.9279,0.9268,0.9271,0.9274,0,0,0,0,0,0,0.8705,0.8768,0.8777,0.8835,0.8876,0.8932,0.8959,0.8971,0.9015,0.9014,0.9049,0.9062,0.9116,0.9144,0.9123,0.9214,0.9207,0.9212,0.9194,0.9197,0.9199,0.9191,0.9132,0,0,0,0,0,0.8708,0.875,0.8803,0.885,0.8869,0.8911,0.8937,0.8956,0.9,0.9017,0.9055,0.9097,0.9142,0.9171,0.9216,0.9274,0.9286,0.9297,0.9299,0.9301,0.9305,0.9337,0.9342,0.9289,0.9289,0.9289,0,0,0.8715,0.8755,0.8779,0.8847,0.8881,0.8923,0.8925,0.897,0.9002,0.9024,0.908,0.9109,0.9159,0.9216,0.9243,0.9241,0.9323,0.9304,0.9305,0.9309,0.9341,0.9346,0.935,0.9291,0.9291,0.929,0,0,0.8749,0.8784,0.8826,0.8859,0.891,0.8937,0.8947,0.9002,0.9021,0.9078,0.9095,0.9134,0.9211,0.9245,0.9273,0.9319,0.9331,0.9333,0.9345,0.9376,0.938,0.9384,0.94,0.9406,0.9338,0.9338,0.9338,0,0.8751,0.8816,0.8846,0.889,0.8919,0.8941,0.8984,0.9015,0.9078,0.9098,0.9094,0.9191,0.9226,0.9291,0.9302,0.9324,0.9337,0.9327,0.9377,0.9381,0.9385,0.9401,0.9407,0.9337,0.9337,0.9337,0.9337,0,0.8816,0.886,0.8888,0.8948,0.898,0.9023,0.906,0.909,0.9106,0.9133,0.919,0.9233,0.9286,0.9303,0.9319,0.937,0.9367,0.937,0.9363,0.939,0.9405,0.9412,0.9337,0.9337,0.9337,0.9337,0,0,0.8842,0.8917,0.8927,0.8954,0.9011,0.9047,0.9091,0.9142,0.9166,0.9209,0.9247,0.9311,0.9314,0.9345,0.9366,0.9393,0.9426,0.9393,0.9394,0.9397,0.9485,0.9482,0.9488,0.9434,0.9435,0.9437,0.948,0,0.8883,0.8962,0.899,0.9056,0.9097,0.9118,0.9156,0.9196,0.9223,0.9262,0.9292,0.9336,0.9337,0.9356,0.9384,0.9416,0.9444,0.9414,0.947,0.9471,0.9456,0.9497,0.9494,0.9533,0.9487,0.9488,0.9488,0,0.8941,0.8984,0.9053,0.9105,0.9123,0.9157,0.9206,0.9243,0.9288,0.9306,0.934,0.9359,0.9406,0.9397,0.9462,0.944,0.9465,0.9485,0.9487,0.9493,0.9481,0.9503,0.9547,0.9552,0.9498,0.9498,0.9497,0,0.8952,0.9027,0.9078,0.9101,0.9163,0.9186,0.9213,0.9257,0.9286,0.9329,0.9348,0.9396,0.9423,0.946,0.9491,0.9481,0.9553,0.9546,0.9569,0.9568,0.9583,0.9581,0.963,0.9599,0.9599,0.9599,0.9599,0,0.8995,0.9036,0.9084,0.9115,0.9162,0.9194,0.924,0.9268,0.9307,0.9345,0.9366,0.9401,0.944,0.9479,0.9504,0.9554,0.9566,0.9581,0.9587,0.9579,0.9577,0.9596,0.9594,0.9601,0.96,0.96,0.96,0,0.9015,0.9049,0.9106,0.916,0.9174,0.9206,0.9253,0.9284,0.9311,0.9358,0.9371,0.9414,0.9462,0.9497,0.9559,0.9575,0.9628,0.9635,0.9613,0.9616,0.9636,0.9634,0.9698,0.9708,0.9671,0.9671,0.9672,0,0.904,0.9072,0.9129,0.9155,0.9182,0.9224,0.9253,0.9286,0.9316,0.937,0.9394,0.9443,0.9484,0.9559,0.9597,0.9644,0.9651,0.9671,0.9659,0.9649,0.9651,0.9648,0.9651,0.9672,0.9672,0.9673,0.9673,0,0.9079,0.9094,0.9135,0.9183,0.9217,0.9256,0.9295,0.9315,0.9355,0.9388,0.9436,0.9468,0.9531,0.9579,0.963,0.9658,0.9672,0.9676,0.9684,0.9676,0.9661,0.9669,0.9617,0.9675,0.9674,0.9674,0.9674,0.9674,0.9102,0.9131,0.9176,0.9221,0.9254,0.929,0.9322,0.9353,0.9394,0.9447,0.9464,0.9515,0.9559,0.9628,0.9657,0.9697,0.9696,0.9708,0.971,0.9713,0.9712,0.9655,0.9707,0.9707,0.9707,0.9707,0.9707,0,0.9142,0.9171,0.9213,0.9267,0.9302,0.9312,0.9356,0.9385,0.9429,0.9469,0.9508,0.9564,0.9611,0.9652,0.97,0.9724,0.9732,0.9736,0.9734,0.974,0.971,0.9698,0.9729,0.9729,0.9729,0.9729,0.9729,0.9729,0.9167,0.9217,0.9237,0.9304,0.9333,0.9382,0.9406,0.944,0.9471,0.9532,0.9571,0.9597,0.9638,0.9689,0.9733,0.9744,0.976,0.9763,0.9775,0.9745,0.9743,0.974,0.9729,0.9766,0.9766,0.9802,0.9802,0.9803]},{"header":{"parameterUnit":"m.s-1","parameterCategory":1,"la1":30.2991,"la2":30.254,"lo1":-89.0895,"lo2":-89.0444,"dy":0.0017,"dx":0.0017,"nx":28,"ny":28,"refTime":"2024-08-10T09:00:00:Z","depth":0,"parameterNumber":3,"parameterNumberName":"V-component_of_WINDS"},"data":[0,0,0,0,0,0,0,0,0,0,0,0,0,0,0,0,0,0,0,0,0,0,0,0,0,0,0,0,0,0,0,0,0,0,0,0,0,0,0,0,0,0,0,0,0,0,0,0,0,0,0,0,0,0,0,0,0,0,3.5988,3.5988,0,3.5941,3.594,3.594,3.5901,3.5901,3.59,3.59,3.5848,3.5847,3.5846,0,0,0,0,0,0,0,0,0,0,0,0,0,3.6042,3.6041,3.5988,3.5988,3.5987,3.5941,3.594,3.594,3.5901,3.5901,3.59,3.59,3.5848,3.5847,3.5846,0,0,0,0,0,0,0,0,0,0,0,0,0,3.6009,3.6041,3.5988,3.5962,3.596,3.5941,3.594,3.594,3.5901,3.5901,3.59,3.59,3.5849,3.5847,3.5846,3.5848,0,0,3.5841,3.5841,0,0,0,0,0,0,0,0,3.6011,3.6007,3.5967,3.5964,3.5961,3.5926,3.594,3.5909,3.5902,3.5923,3.59,3.5899,3.5874,3.5871,3.5863,3.5846,3.5844,3.5841,3.584,3.5839,3.5839,0,0,0,0,0,0,0,3.6013,3.6009,3.5969,3.5966,3.5963,3.5952,3.5947,3.5934,3.5903,3.5921,3.5919,3.5914,3.5873,3.5865,3.5862,3.5843,3.5841,3.584,3.5839,3.5838,3.5824,3.5824,0,0,0,0,0,0,3.602,3.6011,3.5971,3.5968,3.5985,3.5952,3.5946,3.5938,3.5903,3.5897,3.5914,3.5912,3.5868,3.5863,3.586,3.5859,3.5839,3.5838,3.5837,3.5823,3.5824,3.5825,0,0,0,0,0,0,3.6021,3.6017,3.5973,3.5989,3.5982,3.5951,3.5943,3.5937,3.5929,3.5897,3.5891,3.5912,3.5867,3.5862,3.5851,3.5857,3.5837,3.5836,3.5823,3.5824,3.5824,3.5859,0,0,0,0,0,0,3.6023,3.6017,3.6019,3.5989,3.5982,3.5966,3.5943,3.5937,3.5927,3.5924,3.5894,3.5888,3.5866,3.5854,3.585,3.5854,3.5835,3.5822,3.5823,3.5824,3.5857,3.5861,3.5864,0,0,0,0,0,3.6025,3.603,3.6019,3.6014,3.5983,3.5967,3.5962,3.5938,3.5928,3.5928,3.5908,3.5889,3.5857,3.5853,3.5848,3.5852,3.5822,3.5823,3.5824,3.5856,3.586,3.5864,0,0,0,0,0,0,3.6059,3.6025,3.6013,3.6009,3.5991,3.596,3.596,3.5944,3.5928,3.5925,3.5895,3.5888,3.5881,3.5866,3.5862,3.5852,3.5837,3.5837,3.5863,3.5867,3.587,3.5873,3.5834,0,0,0,0,0,3.6067,3.6058,3.6028,3.6027,3.6019,3.5992,3.5984,3.5967,3.5947,3.5939,3.5917,3.5898,3.5883,3.5874,3.5859,3.5855,3.5847,3.5856,3.5859,3.5862,3.5862,3.5858,3.5861,3.5829,3.5829,3.5829,0,0,3.6081,3.6062,3.6058,3.6034,3.6018,3.6008,3.5985,3.5976,3.5968,3.5937,3.5926,3.591,3.5886,3.5878,3.5874,3.5865,3.587,3.5864,3.5866,3.5865,3.5859,3.5863,3.5865,3.5829,3.5829,3.5829,0,0,3.6103,3.6088,3.6085,3.607,3.6047,3.6029,3.6028,3.6,3.5989,3.5977,3.5954,3.5943,3.5919,3.5903,3.5891,3.5907,3.5889,3.5903,3.5921,3.5917,3.5919,3.5921,3.5926,3.5928,3.5904,3.5904,3.5904,0,3.6123,3.6109,3.6085,3.6077,3.6067,3.604,3.6036,3.6022,3.5995,3.5988,3.5979,3.5948,3.593,3.5918,3.5922,3.5915,3.5912,3.5906,3.5921,3.5923,3.5925,3.5928,3.593,3.5906,3.5905,3.5905,3.5905,0,3.6135,3.6125,3.6126,3.6102,3.6091,3.6086,3.606,3.6052,3.6036,3.6018,3.6007,3.5984,3.5964,3.596,3.5944,3.5946,3.5941,3.5927,3.5911,3.593,3.5933,3.5934,3.5908,3.5908,3.5907,3.5907,0,0,3.6176,3.6139,3.614,3.6128,3.6101,3.6093,3.6085,3.6067,3.606,3.6043,3.6035,3.6016,3.6003,3.599,3.5972,3.5969,3.5981,3.5955,3.5954,3.5959,3.598,3.599,3.5992,3.5969,3.597,3.597,3.5982,0,3.6192,3.6179,3.6157,3.615,3.614,3.6114,3.6108,3.609,3.6073,3.6062,3.6043,3.6029,3.6014,3.6006,3.6002,3.5981,3.5985,3.598,3.596,3.596,3.5966,3.5994,3.6004,3.6017,3.5983,3.5983,3.5983,0,3.6209,3.6194,3.6186,3.616,3.6155,3.615,3.6131,3.6121,3.6099,3.6087,3.6074,3.6054,3.6044,3.603,3.6015,3.6012,3.6002,3.5991,3.5991,3.5987,3.5972,3.599,3.6021,3.6022,3.5985,3.5985,3.5985,0,3.6238,3.6216,3.6208,3.62,3.6169,3.6166,3.6153,3.6131,3.6121,3.6105,3.6098,3.6079,3.6069,3.6055,3.6031,3.6023,3.6017,3.6002,3.6006,3.6006,3.6005,3.6005,3.6033,3.6001,3.6001,3.6001,3.6001,0,3.6257,3.6253,3.6221,3.6216,3.6211,3.6186,3.6181,3.6165,3.6146,3.6137,3.6114,3.6105,3.6075,3.6062,3.6043,3.6032,3.6028,3.6017,3.6012,3.6019,3.602,3.6011,3.6009,3.6001,3.6001,3.6001,3.6001,0,3.6288,3.6267,3.6257,3.6229,3.6222,3.6219,3.6195,3.6189,3.6171,3.616,3.6156,3.6128,3.6112,3.6087,3.6063,3.605,3.6043,3.6035,3.605,3.6047,3.6052,3.6052,3.6075,3.6076,3.6045,3.6045,3.6045,0,3.6302,3.6298,3.6271,3.6264,3.6252,3.624,3.6231,3.6206,3.6196,3.6172,3.6169,3.6152,3.6136,3.6112,3.6089,3.607,3.6061,3.607,3.6058,3.6065,3.606,3.606,3.6059,3.6073,3.6073,3.6074,3.6074,0,3.6327,3.6317,3.6304,3.6288,3.6277,3.6263,3.6247,3.6242,3.6214,3.6204,3.6189,3.6177,3.6154,3.6136,3.6115,3.61,3.6082,3.6079,3.6078,3.6084,3.6093,3.6088,3.6057,3.6078,3.6077,3.6077,3.6077,3.6077,3.6348,3.6344,3.6324,3.6311,3.6297,3.6283,3.6276,3.6258,3.6245,3.6225,3.6211,3.6196,3.6175,3.6144,3.613,3.6117,3.6109,3.6109,3.6109,3.6109,3.6111,3.6097,3.6113,3.6113,3.6113,3.6113,3.6113,0,3.6372,3.6358,3.6346,3.6326,3.6315,3.6301,3.6283,3.6275,3.6262,3.6245,3.6231,3.6212,3.6196,3.6171,3.6152,3.6147,3.6138,3.6142,3.6142,3.6139,3.612,3.6122,3.615,3.615,3.615,3.615,3.615,3.615,3.6383,3.6374,3.6362,3.6346,3.6332,3.6318,3.6309,3.6296,3.6281,3.6263,3.6249,3.6234,3.6213,3.6193,3.6176,3.617,3.6163,3.617,3.6161,3.6143,3.614,3.6137,3.6138,3.6169,3.6169,3.618,3.618,3.618]}]]